This is the latest recevied weather packets stored in our database for station/object N7TUG-8. If no packets are shown the sender has not sent any weather packets the latest 10 day(s).
| Time | Temp. | Humidity | Pressure | Rain* | Wind** | Luminosity | Snow |
|---|---|---|---|---|---|---|---|
| 1777966184 | 13.89° C | 85% | 1011.7 hPa | 0 mm | 2.24 m/s, 123° | - | - |
| 1777965897 | 13.89° C | 85% | 1011.7 hPa | 0 mm | 2.24 m/s, 123° | - | - |
| 1777965866 | 13.89° C | 85% | 1011.7 hPa | 0 mm | 2.24 m/s, 123° | - | - |
| 1777965072 | 13.89° C | 85% | 1011.5 hPa | 0 mm | 2.24 m/s, 128° | - | - |
| 1777964975 | 13.89° C | 85% | 1011.5 hPa | 0 mm | 2.24 m/s, 126° | - | - |
| 1777964256 | 14.44° C | 85% | 1011.4 hPa | 0 mm | 2.68 m/s, 121° | - | - |
| 1777964186 | 14.44° C | 85% | 1011.4 hPa | 0 mm | 2.68 m/s, 121° | - | - |
| 1777963447 | 14.44° C | 84% | 1011.3 hPa | 0 mm | 2.68 m/s, 115° | - | - |
| 1777963231 | 14.44° C | 84% | 1011.3 hPa | 0 mm | 2.68 m/s, 115° | - | - |
| 1777962721 | 14.44° C | 84% | 1011.2 hPa | 0 mm | 1.79 m/s, 117° | - | - |
| 1777962355 | 14.44° C | 83% | 1011.1 hPa | 0 mm | 2.24 m/s, 116° | - | - |
| 1777961455 | 15° C | 82% | 1010.8 hPa | 0 mm | 2.68 m/s, 129° | - | - |
| 1777961067 | 15° C | 82% | 1010.7 hPa | 0 mm | 3.13 m/s, 122° | - | - |
| 1777960495 | 15.56° C | 82% | 1010.5 hPa | 0 mm | 3.13 m/s, 125° | - | - |
| 1777959611 | 15.56° C | 81% | 1010.4 hPa | 0 mm | 3.13 m/s, 141° | - | - |
| 1777959512 | 15.56° C | 81% | 1010.4 hPa | 0 mm | 3.13 m/s, 141° | - | - |
| 1777958675 | 15.56° C | 81% | 1010.3 hPa | 0 mm | 2.68 m/s, 144° | - | - |
| 1777957846 | 16.11° C | 80% | 1010.3 hPa | 0 mm | 2.68 m/s, 145° | - | - |
| 1777957055 | 16.11° C | 79% | 1010.2 hPa | 0 mm | 3.58 m/s, 153° | - | - |
| 1777957022 | 16.11° C | 79% | 1010.2 hPa | 0 mm | 3.58 m/s, 153° | - | - |
| 1777956901 | 16.67° C | 78% | 1010.1 hPa | 0 mm | 4.02 m/s, 161° | - | - |
| 1777956176 | 16.67° C | 77% | 1010.1 hPa | 0 mm | 2.68 m/s, 157° | - | - |
| 1777955991 | 17.22° C | 77% | 1009.9 hPa | 0 mm | 3.13 m/s, 159° | - | - |
| 1777955307 | 17.78° C | 75% | 1009.9 hPa | 0 mm | 2.68 m/s, 161° | - | - |
| 1777955141 | 17.78° C | 75% | 1009.9 hPa | 0 mm | 2.68 m/s, 161° | - | - |
* Rain latest hour (hover to see other rain measurements)
** Current wind speed in m/s (hover to see current wind gust speed)